Home > Weather > Mesquite > Past weeks

Flag for USA Past Weather in Mesquite, Texas, USA — Yesterday and Last 2 Weeks

Now
78 °F

Clear.


Feels Like: 81 °F
Forecast: 78 / 94 °F
Wind: 3 mph from Southeast

Location: Mesquite Metro Airport

Current Time: Jun 27, 2016 at 1:02:14 AM

Latest Report: Jun 27, 2016 at 12:15 AM


Visibility: 10 mi

Pressure: 30.10 "Hg

Humidity: 85%

Dew Point: 73 °F

Location of MesquiteLocation

Past Weather in Mesquite — Graph

°F

Mesquite Temperature Yesterday

Maximum temperature yesterday: 95 °F (at 2:50 PM)
Minimum temperature yesterday: 75 °F (at 6:15 AM)
Average temperature yesterday: 83 °F

High & Low Weather Summary for the Past Weeks

 TemperatureHumidityPressure
High97 °F (Jun 18, 3:50 PM)100% (Jun 12, 6:50 AM)30.23 "Hg (Jun 12, 6:50 AM)
Low72 °F (Jun 12, 6:50 PM)36% (Jun 17, 4:50 PM)29.79 "Hg (Jun 14, 6:50 PM)
Average81 °F78%30.00 "Hg
* Reported Jun 12 12:00 AM — Jun 27 12:15 AM, Mesquite, Weather by CustomWeather, © 2016

Note: Actual official high and low records may vary slightly from our data, if they occured in-between our weather recording intervals... More about our weather records

Advertising

Mesquite Weather History for the Previous 24 Hours

Scroll right to see more
 ConditionsComfort  
Time TempWeatherWind HumidityBarometerVisibility
12:15 AM
Mon, Jun 27
78 °FClear.3 mph85%30.10 "Hg10 mi
11:35 PM
Sun, Jun 26
79 °FClear.3 mph82%30.10 "Hg10 mi
11:15 PM80 °FClear.No wind80%30.10 "Hg10 mi
10:55 PM80 °FClear.No wind76%30.09 "Hg10 mi
10:35 PM81 °FClear.No wind76%30.09 "Hg10 mi
10:15 PM82 °FClear.No wind72%30.08 "Hg10 mi
9:55 PM82 °FClear.3 mph69%30.06 "Hg10 mi
9:35 PM83 °FSunny.No wind68%30.05 "Hg10 mi
9:15 PM84 °FSunny.5 mph64%30.04 "Hg10 mi
8:55 PM85 °FSunny.7 mph62%30.04 "Hg10 mi
8:35 PM87 °FSunny.9 mph61%30.04 "Hg10 mi
8:15 PM88 °FSunny.9 mph59%30.02 "Hg10 mi
7:50 PM90 °FSunny.6 mph55%30.02 "Hg10 mi
6:50 PM91 °FSunny.8 mph49%30.01 "Hg10 mi
5:50 PM91 °FScattered clouds.9 mph46%30.02 "Hg10 mi
4:50 PM95 °FSunny.9 mph44%30.04 "Hg10 mi
3:50 PM95 °FSunny.9 mph41%30.06 "Hg10 mi
2:50 PM95 °FSunny.10 mph44%30.08 "Hg10 mi
1:50 PM93 °FSunny.10 mph47%30.11 "Hg10 mi
12:50 PM91 °FSunny.9 mph46%30.12 "Hg10 mi
11:50 AM88 °FSunny.7 mph55%30.13 "Hg10 mi
10:50 AM90 °FSunny.10 mph59%30.13 "Hg10 mi
9:50 AM84 °FSunny.9 mph70%30.13 "Hg10 mi
8:50 AM82 °FSunny.9 mph79%30.13 "Hg10 mi
7:50 AM79 °FSunny.8 mph89%30.12 "Hg10 mi
6:50 AM75 °FClear.3 mph100%30.11 "Hg10 mi
6:15 AM75 °FClear.3 mph98%30.11 "Hg10 mi
5:55 AM75 °FClear.No wind99%30.10 "Hg10 mi
5:15 AM76 °FClear.No wind98%30.09 "Hg10 mi
4:55 AM77 °FClear.3 mph97%30.09 "Hg10 mi
4:35 AM77 °FClear.5 mph96%30.09 "Hg10 mi
4:15 AM77 °FClear.No wind95%30.09 "Hg10 mi
3:55 AM77 °FClear.No wind94%30.08 "Hg10 mi
3:35 AM78 °FClear.5 mph94%30.09 "Hg10 mi
3:15 AM78 °FClear.6 mph95%30.09 "Hg10 mi
2:55 AM78 °FClear.5 mph94%30.09 "Hg10 mi
2:35 AM78 °FClear.3 mph92%30.09 "Hg10 mi
2:15 AM78 °FPassing clouds.3 mph91%30.08 "Hg10 mi
1:55 AM79 °FPassing clouds.No wind88%30.07 "Hg10 mi
1:35 AM79 °FPassing clouds.No wind87%30.07 "Hg10 mi
1:15 AM79 °FPassing clouds.No wind87%30.06 "Hg10 mi
Weather by CustomWeather, © 2016

See weather overviewHow to use our weather pages